Regional Weather Roundup
Issued by NWS

Home | Current Version | Previous Version | Text Only | Print | Product List | Glossary On
Versions: 1 2 3 4 5 6 7 8 9 10 11 12 13 14 15 16 17 18 19 20 21 22 23 24 25 26 27 28 29 30 31 32 33 34 35 36 37 38 39 40 41 42 43 44 45 46 47 48 49 50
000
ASUS44 KLIX 042111
RWRLA
LOUISIANA WEATHER ROUNDUP
NATIONAL WEATHER SERVICE NEW ORLEANS LA
400 PM CDT SAT JUL 04 2015

NOTE: "FAIR" INDICATES FEW OR NO CLOUDS BELOW 12,000 FEET WITH NO
      SIGNIFICANT WEATHER AND/OR OBSTRUCTIONS TO VISIBILITY.
      SKY/WX - SKY CONDITION AND SIGNIFICANT WEATHER.
      TMP - AIR TEMPERATURE.    DP   - DEWPOINT TEMPERATURE.
      RH  - RELATIVE HUMIDITY.  PRES - PRESSURE.
      HX  - HEAT INDEX.         WCI  - WIND CHILL INDEX.

*  THESE STATIONS ARE NOT NWS OR FAA STATIONS AND ARE NOT UNDER
   NWS QUALITY CONTROL.

LAZ040-048-061>063-065-066-069-042200-
SOUTHEAST LOUISIANA

CITY           SKY/WX    TMP DP  RH WIND       PRES   REMARKS
N.O. AUDUBON     N/A     89  77  67 MISG        N/A  HX 102
N.O. INTL ARPT CLOUDY    84  72  67 W12       30.04R
N.O. LAKEFRONT CLOUDY    88  73  61 NW14      30.04R HX  95
N.O. DOWNTOWN* FAIR      91  73  55 SW8       30.04R HX 100
RESERVE*       FAIR      80  73  78 CALM      30.04S
SLIDELL        CLOUDY    86  74  67 VRB6      30.04R
BATON ROUGE    LGT RAIN  77  72  84 W5        30.05R
BOOTHVILLE     MOSUNNY   89  77  67 SW13      30.04F HX 101
BELLE CHASSE   CLOUDY    87  72  60 W7        30.03R
BOGALUSA*      RAIN      76  69  79 NW8       30.09R
GALLIANO*      MOCLDY    90  73  58 MISG      30.03F HX  98
NEW ROADS*     RAIN     N/A N/A N/A W5        30.07R
GONZALES*      FAIR      79  76  90 CALM      30.04R
HAMMOND*       CLOUDY    75  70  83 CALM      30.07R
HOUMA*         MOSUNNY   86  73  66 SW7       30.02F
PORT FOURCHON* PTCLDY    88  75  66 SW10G17   30.04F HX  97

$$

LAZ041-044-053-054-042200-
SOUTHWEST LOUISIANA

CITY           SKY/WX    TMP DP  RH WIND       PRES   REMARKS
LAKE CHARLES   CLOUDY    84  76  76 S6        30.02R
LAFAYETTE      TSTM      75  69  81 NW8G20    30.04F
PATTERSON      CLOUDY    84  75  74 SW10      30.04F
SALT POINT       N/A     86  76  71 SW6       30.02F HX  96
NEW IBERIA     NOT AVBL
CHENAULT AIRPK PTSUNNY   84  75  74 SW7       30.03R THUNDER

$$

LAZ027-028-042200-
CENTRAL LOUISIANA

CITY           SKY/WX    TMP DP  RH WIND       PRES   REMARKS
FORT POLK      PTSUNNY   86  74  66 S10       29.98S
ALEXANDRIA INT CLOUDY    76  73  91 E8        30.01R
ALEXANDRIA     PTSUNNY   76  71  85 SE6       30.05R

$$

LAZ001-002-042200-
NORTHWEST LOUISIANA

CITY           SKY/WX    TMP DP  RH WIND       PRES   REMARKS
SHREVEPORT     LGT RAIN  73  70  90 N15       30.02R
BARKSDALE AFB  CLOUDY    70  68  94 NE10      30.02R
DTN SHREVEPORT LGT RAIN  71  68  90 NE15G25   30.01R FOG

$$

LAZ014-016-042200-
NORTHEAST LOUISIANA

CITY           SKY/WX    TMP DP  RH WIND       PRES   REMARKS
MONROE         PTSUNNY   85  66  53 VRB3      30.01R
TALLULAH       LGT RAIN  83  71  67 S15G21    30.01R

$$




USA.gov is the U.S. government's official web portal to all federal, state and local government web resources and services.